Location: Waldport
(44.4270°N, 124.0680°W)
Time: 15:33:08
(UTC-07:00)

Daily predictions for brighter satellites

Satellite Brightness Start Highest point End
(mag) Time Altitude Azimuth Time Altitude Azimuth Time Altitude Azimuth
Cosmos 1933 4.3 20:41:13 10° SSE 20:44:39 27° E 20:48:06 10° NNE
Cosmos 1862 Rocket 4.3 20:43:05 10° SSE 20:47:07 35° E 20:51:12 10° NNE
Meteor 2-20 Rocket 4.5 20:41:28 10° N 20:47:36 72° E 20:53:43 10° SSE
USA 186 1.5 20:44:59 10° SSE 20:47:46 67° ENE 20:50:46 10° N
ERBS 4.4 20:45:23 10° WNW 20:48:10 23° SW 20:50:58 10° S
Helios 1A 3.3 20:44:36 10° SSE 20:48:43 51° ENE 20:52:52 10° N
USA 234 3.6 20:44:57 10° ESE 20:51:22 61° NNE 20:57:48 10° NW
CZ-4B DEB 3.5 20:49:58 10° SE 20:52:44 33° ENE 20:55:31 10° N
Cosmos 2278 Rocket 4.5 20:53:38 10° NNE 20:54:18 10° NE 20:54:57 10° NE
Cosmos 1844 Rocket 4.3 20:52:17 10° N 20:56:16 20° NE 21:00:14 10° E
YAOGAN 6 4.0 20:56:06 10° ESE 20:59:02 23° ENE 21:01:56 10° NNE
BREEZE-M DEB (TANK) 3.4 20:56:18 10° W 20:59:18 78° N 21:07:11 10° E
Cosmos 1862 3.4 20:55:30 10° N 20:59:30 58° E 21:03:29 10° SSE
Cosmos 1455 4.2 20:59:00 10° SW 21:02:27 33° WNW 21:05:54 10° N
Resurs 1-3 4.3 20:58:57 10° S 21:03:15 56° W 21:07:36 10° NNW
Cosmos 1634 Rocket 4.2 20:57:33 10° S 21:03:52 80° W 21:10:15 10° N
ERS-1 Rocket 3.8 21:02:08 10° SE 21:06:37 34° ENE 21:11:07 10° N
SeaSat 1 4.1 21:08:03 10° E 21:11:37 20° NE 21:15:11 10° N
Cosmos 2219 Rocket 3.9 21:19:11 12° E 21:19:34 12° E 21:21:31 10° ENE
Meteor 2-10 Rocket 4.0 21:15:05 10° SSE 21:20:41 50° E 21:26:14 10° NNE
Cosmos 1939 Rocket 2.8 21:16:52 10° SSE 21:20:53 76° ENE 21:24:53 10° N
Cosmos 1655 Rocket 4.1 21:14:29 10° N 21:20:55 85° W 21:27:17 10° S
Cosmos 2242 Rocket 4.1 21:16:32 10° SSW 21:21:00 64° W 21:25:27 10° N
Cosmos 2266 Rocket 4.3 21:20:22 10° N 21:26:28 49° ENE 21:31:44 14° SSE
BREEZE-M DEB (TANK) 4.4 21:25:00 10° WNW 21:30:00 90° SSW 21:50:41 12° ESE
Cosmos 1992 Rocket 4.2 21:26:18 10° SSW 21:31:31 74° WNW 21:36:47 10° NNE
SPOT 5 3.8 21:29:53 18° ESE 21:32:35 30° ENE 21:36:35 10° N
Helios 1B rocket 2.7 21:28:50 10° N 21:32:57 71° WNW 21:37:01 10° SSW
Lacrosse 4 Rocket 3.4 21:29:25 10° NW 21:33:01 26° WSW 21:36:40 10° SSW
USA 229 DEB 3.8 21:29:07 10° S 21:35:38 50° ESE 21:42:17 10° NE
USA 229 3.8 21:29:14 10° S 21:35:44 49° ESE 21:42:22 10° NE
Cosmos 2263 Rocket 2.7 21:33:22 10° NNW 21:38:48 55° WSW 21:44:13 10° S
Cosmos 2279 Rocket 4.3 21:35:08 10° SSW 21:41:20 70° W 21:47:34 10° N
Resurs 01 Rocket 4.2 21:39:03 10° SW 21:42:20 20° W 21:45:38 10° NW
Cosmos 1825 4.3 21:39:56 10° NNW 21:43:10 27° W 21:46:22 10° SSW
Atlas Centaur 2 3.8 21:38:56 10° SW 21:44:32 26° S 21:47:50 20° SE
Cosmos 2237 4.4 21:43:17 10° S 21:48:45 49° ESE 21:54:16 10° NE
Cosmos 2322 Rocket 3.6 21:45:36 10° SW 21:50:53 42° WNW 21:56:14 10° NNE
H-2A R/B 3.9 21:51:22 15° E 21:52:31 17° ENE 21:55:15 10° NNE
Cosmos 1908 Rocket 3.7 21:51:58 10° NNW 21:56:18 75° W 21:59:28 18° S
COSMOS 2428 3.0 21:52:41 10° S 21:58:03 45° ESE 22:03:27 10° NE
Sich 1 Rocket 3.8 21:54:04 10° NNW 21:58:32 72° W 22:01:56 17° S
USA 267 4.2 21:52:32 10° NE 21:58:47 49° NNW 22:05:02 10° W
Cosmos 2360 Rocket 2.2 21:53:18 10° SSW 21:58:57 85° WNW 22:04:40 10° NNE
Milstar 3 4.4 21:58:24 10° WSW 22:02:49 16° SSW 22:05:16 14° S
CZ-4C R/B 3.7 21:58:19 10° NNW 22:04:42 38° NE 22:09:38 19° E
Cosmos 968 Rocket 3.9 21:59:47 10° NNW 22:04:54 60° WSW 22:08:32 19° S
MetOp-B 4.1 22:01:42 25° SSE 22:04:55 77° ENE 22:10:17 10° N
Meteor 1-14 Rocket 4.2 21:59:52 10° N 22:05:34 87° W 22:09:37 21° S
Cosmos 1606 3.8 22:06:26 27° E 22:06:26 27° E 22:09:18 10° NNE
MOS 1-B Rocket 4.0 22:03:26 27° SE 22:06:39 61° ENE 22:12:10 10° N
Cosmos 1844 4.1 22:03:53 10° NNW 22:09:22 48° ENE 22:11:46 30° ESE
Meteor 1-25 Rocket 4.1 22:04:14 10° N 22:09:51 76° E 22:12:49 29° SSE
NOAA 11 4.1 22:07:24 24° SSE 22:10:47 88° ENE 22:16:19 10° NNW
Cosmos 1782 Rocket 3.5 22:06:25 10° N 22:10:49 89° W 22:12:51 32° S
ATLAS 5 CENTAUR R/B 3.1 22:06:48 10° NW 22:12:34 47° WSW 22:16:45 20° S
Cosmos 2322 3.9 22:08:52 10° SSW 22:14:34 75° WNW 22:20:18 10° NNE
Abrixas rocket 3.3 22:13:28 10° WNW 22:16:36 41° N 22:17:39 30° NE
USA 245 4.0 22:14:23 30° SSE 22:17:12 77° ENE 22:21:59 10° N
Cosmos 1867 4.4 22:14:34 10° NW 22:19:43 43° WSW 22:22:39 23° S
Terra 2.9 22:19:36 27° E 22:20:31 29° ENE 22:24:35 10° N
SL-16 R/B 4.4 22:16:30 10° WSW 22:21:16 27° NW 22:26:04 10° N
Meteor 1-20 Rocket 4.1 22:16:04 10° N 22:21:41 85° E 22:24:25 32° SSE
ARGOS 3.1 22:19:22 33° SSE 22:21:54 84° ENE 22:27:19 10° NNW
H-2A R/B 2.2 22:21:01 38° ESE 22:22:30 52° ENE 22:27:17 10° N
Okean 2 Rocket 3.0 22:18:45 10° N 22:23:19 89° E 22:24:50 42° S
Okean 1-7 3.0 22:22:18 28° SSW 22:24:35 84° W 22:29:01 10° N
S3M 4.4 22:32:34 37° ESE 22:33:52 41° E 22:39:37 10° NNE
USA 234 3.8 22:31:22 28° S 22:34:30 46° SW 22:40:46 10° WNW
Cosmos 2333 4.1 22:31:55 15° SSW 22:36:41 80° ESE 22:42:29 10° NNE
Cosmos 2237 Rocket 3.1 22:37:35 30° E 22:37:35 30° E 22:41:50 10° NE
Cosmos 2333 Rocket 2.5 22:37:14 43° ESE 22:37:43 44° ESE 22:43:09 10° NE
Meteor 2-6 Rocket 4.3 22:35:36 38° SSE 22:37:52 66° E 22:43:46 10° NNE
Cosmos 1570 Rocket 4.1 22:38:19 49° SE 22:39:04 54° ESE 22:44:12 10° NNE
Cosmos 2278 Rocket 2.7 22:34:27 10° NNW 22:39:56 46° ENE 22:41:25 38° E
Cosmos 1844 Rocket 2.6 22:35:14 10° NNW 22:40:50 79° WSW 22:42:37 45° S
Cosmos 2084 3.7 22:37:54 10° NNW 22:41:39 49° NE 22:41:45 48° NE
ERS-1 Rocket 4.5 22:42:04 16° SSW 22:45:23 31° W 22:49:51 10° NNW
Cosmos 1782 2.9 22:47:27 61° SW 22:47:59 72° W 22:52:00 10° N
Cosmos 2208 Rocket 4.0 22:47:48 55° SE 22:48:27 59° ESE 22:53:41 10° NNE
SeaSat 1 2.5 22:47:30 52° S 22:48:40 73° WSW 22:53:37 10° NNW
deb Chang Zheng 4 4.4 22:45:38 10° NNE 22:48:51 36° ENE 22:48:51 36° ENE
Nimbus 7 Rocket 4.4 22:46:08 10° NNE 22:52:06 84° WNW 22:55:30 28° SSW
Cosmos 2151 Rocket 3.5 22:53:01 10° N 22:57:28 82° W 22:57:45 76° SSW
CARTOSAT-1 3.6 23:00:18 64° ENE 23:00:18 64° ENE 23:04:25 10° N
Cosmos 2219 Rocket 2.0 23:00:48 46° SSW 23:02:34 85° ESE 23:08:14 10° NNE
Cosmos 1346 Rocket 3.5 23:05:00 47° NNE 23:05:00 47° NNE 23:07:57 10° NNE
Cosmos 1417 Rocket 4.4 23:02:47 43° S 23:05:05 89° W 23:11:29 10° N
Cosmos 1602 4.2 23:01:17 10° N 23:04:25 57° N 23:04:25 57° N
Cosmos 1745 Rocket 4.0 22:59:00 10° N 23:05:21 70° E 23:06:41 55° SE
SPOT 1/Viking Rocket 4.2 23:08:56 39° SW 23:10:19 49° W 23:15:24 10° NNW
SPOT 5 4.2 23:09:07 26° SW 23:10:36 31° W 23:14:45 10° NW
Cosmos 1898 Rocket 3.6 23:07:18 10° NNW 23:12:26 59° ENE 23:12:38 58° ENE
Iridium 4 Rocket 3.5 23:09:09 10° N 23:12:28 52° NNE 23:12:28 52° NNE
Cosmos 1633 3.6 23:10:30 10° NNW 23:13:21 45° NW 23:13:21 45° NW
Okean 1 Rocket 3.6 23:10:32 10° N 23:14:17 51° NE 23:14:17 51° NE
IGS 5A 3.7 23:16:38 65° NNW 23:16:38 65° NNW 23:20:13 10° NNW
Cosmos 1674 Rocket 3.8 23:18:35 62° NNE 23:18:35 62° NNE 23:22:13 10° N
Meteor 1-27 Rocket 3.6 23:18:02 64° SSW 23:18:57 88° W 23:24:35 10° N
NOSS 3-1 (C) 3.4 23:16:53 25° SW 23:20:33 82° NW 23:27:09 10° NE
ASTEX 1 3.4 23:21:22 69° SW 23:21:41 71° W 23:26:41 10° N
H-2A R/B 2.7 23:28:29 51° WNW 23:28:29 51° WNW 23:32:21 10° NNW
NOSS 0 Rocket 3.8 23:29:28 55° SSW 23:30:55 86° WNW 23:37:07 10° NNE
Atlas Centaur 2 4.3 23:27:11 10° WSW 23:30:29 21° SW 23:30:29 21° SW
Cosmos 2297 3.9 23:29:27 10° NNW 23:35:06 58° ENE 23:35:21 57° ENE
NOSS 3-1 (A) 3.3 23:35:07 52° SW 23:36:44 84° NW 23:43:21 10° NE
ATLAS 2AS CENTAUR R/B 3.9 23:39:38 31° E 23:39:38 31° E 23:45:14 10° NE
Timation 1 Rocket 4.2 23:34:11 10° NNW 23:40:12 84° WSW 23:40:30 80° S
Cosmos 1975 Rocket 4.5 23:43:21 31° NE 23:43:21 31° NE 23:45:57 10° NNE
COSMOS 2428 4.4 23:37:26 10° WSW 23:42:28 31° NW 23:47:33 10° N
Meteor 1-11 Rocket 4.1 23:37:37 10° NNW 23:42:56 50° W 23:43:31 48° WSW
Cosmos 468 Rocket 4.1 23:49:29 71° NNE 23:49:29 71° NNE 23:54:14 10° NNE
Cosmos 1536 4.2 23:45:47 10° NNW 23:48:30 38° NW 23:48:30 38° NW
Cosmos 1980 4.0 23:52:21 54° WSW 23:53:16 63° WNW 23:58:54 10° NNE
Cosmos 2315 Rocket 4.0 23:53:50 65° E 23:53:50 65° E 23:59:51 10° NNE
